Date String (YYYY-MM-DD hh:mm:ss) UTC,Instrument flags,Ambient pressure (hPa),Sample flow (lpm),Bypass flow (lpm),Sample temperature (°C),Ambient temperature (°C),ASC tube jacket temperature (°C),LED temperature (°C),Box temperature (°C),Sample RH (%),Span deviation,Mass concentration (μg/m³),Mass concentration (μg/m³),Mass concentration (μg/m³)
DateTimeUTC,F1_M11,P_M11,Q1_M11,Q2_M11,T1_M11,T2_M11,T3_M11,T4_M11,T5_M11,U1_M11,ZSPAN_M11,X0_M11,X2_M11,X1_M11
2022-12-04 18:00:00,,0825.4,5.00,0.00,24.3,23.3,00.0,33.1,26.2,14.5,0000.0,0016.47,0007.39,0005.99
2022-12-04 18:01:00,,0825.3,5.01,0.00,24.4,23.3,00.0,33.1,26.2,14.3,0000.0,0016.50,0007.46,0006.03
2022-12-04 18:02:00,,0825.2,4.99,0.00,24.4,23.4,00.0,33.2,26.3,14.4,0000.0,0016.07,0007.45,0006.08
2022-12-04 18:03:00,,0825.2,4.99,0.00,24.4,23.4,00.0,33.2,26.3,14.2,0000.0,0015.81,0007.48,0006.13
2022-12-04 18:04:00,,0825.2,5.00,0.00,24.4,23.4,00.0,33.2,26.3,14.1,0000.0,0016.43,0007.57,0006.17
2022-12-04 18:05:00,,0825.2,5.00,0.00,24.4,23.4,00.0,33.2,26.3,14.0,0000.0,0016.59,0007.61,0006.19
2022-12-04 18:06:00,,0825.2,5.00,0.00,24.4,23.4,00.0,33.2,26.3,14.1,0000.0,0016.58,0007.59,0006.20
2022-12-04 18:07:00,,0825.2,5.00,0.00,24.5,23.4,00.0,33.2,26.3,14.4,0000.0,0015.96,0007.64,0006.22
2022-12-04 18:08:00,,0825.2,5.00,0.00,24.5,23.5,00.0,33.3,26.3,14.1,0000.0,0016.11,0007.68,0006.23
2022-12-04 18:09:00,,0825.2,5.00,0.00,24.5,23.5,00.0,33.3,26.4,14.1,0000.0,0016.72,0007.63,0006.23
2022-12-04 18:10:00,,0825.2,5.00,0.00,24.5,23.5,00.0,33.3,26.4,14.0,0000.0,0017.09,0007.61,0006.25
2022-12-04 18:11:00,,0825.1,5.00,0.00,24.5,23.6,00.0,33.3,26.4,14.2,0000.0,0016.93,0007.57,0006.26
2022-12-04 18:12:00,,0825.0,5.00,0.00,24.6,23.6,00.0,33.3,26.4,14.1,0000.0,0016.69,0007.59,0006.28
2022-12-04 18:13:00,,0824.9,5.00,0.00,24.6,23.6,00.0,33.3,26.5,14.1,0000.0,0016.60,0007.62,0006.31
2022-12-04 18:14:00,,0824.9,5.00,0.00,24.6,23.6,00.0,33.4,26.5,14.3,0000.0,0016.55,0007.67,0006.35
2022-12-04 18:15:00,,0824.9,5.00,0.00,24.6,23.6,00.0,33.4,26.5,14.4,0000.0,0016.18,0007.71,0006.41
2022-12-04 18:16:00,,0824.9,5.00,0.00,24.6,23.6,00.0,33.4,26.5,14.1,0000.0,0016.94,0007.74,0006.45
2022-12-04 18:17:00,,0824.9,5.00,0.00,24.6,23.7,00.0,33.4,26.5,14.0,0000.0,0017.05,0007.77,0006.51
2022-12-04 18:18:00,,0824.9,5.00,0.00,24.7,23.7,00.0,33.4,26.5,14.0,0000.0,0017.60,0007.78,0006.55
2022-12-04 18:19:00,,0824.9,5.00,0.00,24.7,23.7,00.0,33.5,26.6,13.8,0000.0,0018.04,0007.83,0006.62
2022-12-04 18:20:00,,0824.9,5.00,0.00,24.7,23.7,00.0,33.5,26.6,13.7,0000.0,0018.35,0007.96,0006.70
2022-12-04 18:21:00,,0824.9,4.99,0.00,24.7,23.7,00.0,33.5,26.6,13.7,0000.0,0018.32,0008.09,0006.77
2022-12-04 18:22:00,,0824.8,5.00,0.00,24.7,23.7,00.0,33.5,26.6,13.7,0000.0,0018.87,0008.18,0006.87
2022-12-04 18:23:00,,0824.7,5.01,0.00,24.7,23.7,00.0,33.5,26.6,13.6,0000.0,0018.81,0008.20,0006.94
2022-12-04 18:24:00,,0824.6,5.01,0.00,24.8,23.8,00.0,33.5,26.6,13.7,0000.0,0018.79,0008.28,0007.00
2022-12-04 18:25:00,,0824.7,4.99,0.00,24.8,23.8,00.0,33.5,26.7,13.7,0000.0,0018.65,0008.31,0007.04
2022-12-04 18:26:00,,0824.8,4.99,0.00,24.8,23.8,00.0,33.6,26.7,13.7,0000.0,0018.49,0008.29,0007.04
2022-12-04 18:27:00,,0824.7,5.00,0.00,24.8,23.8,00.0,33.6,26.7,14.0,0000.0,0018.04,0008.32,0007.09
2022-12-04 18:28:00,,0824.7,5.01,0.00,24.8,23.8,00.0,33.6,26.7,13.9,0000.0,0018.50,0008.42,0007.19
2022-12-04 18:29:00,,0824.7,5.01,0.00,24.8,23.8,00.0,33.6,26.8,13.8,0000.9,0017.98,0008.47,0007.27
2022-12-04 18:30:00,,0824.4,5.00,0.00,24.8,23.8,00.0,33.6,26.8,13.8,0001.7,0017.57,0008.57,0007.32
2022-12-04 18:31:00,,0824.4,4.99,0.00,24.8,23.8,00.0,33.6,26.8,13.9,0002.8,0016.80,0008.62,0007.37
2022-12-04 18:32:00,,0824.4,4.99,0.00,24.8,23.8,00.0,33.6,26.7,13.9,0002.4,0016.72,0008.73,0007.42
2022-12-04 18:33:00,,0824.5,5.01,0.00,24.8,23.8,00.0,33.6,26.8,13.8,0002.3,0017.30,0008.85,0007.44
2022-12-04 18:34:00,,0824.5,5.01,0.00,24.9,23.8,00.0,33.7,26.7,13.9,0002.4,0019.24,0008.94,0007.48
2022-12-04 18:35:00,,0824.4,5.00,0.00,24.9,23.8,00.0,33.7,26.7,13.9,0002.8,0020.02,0008.96,0007.51
2022-12-04 18:36:00,,0824.4,5.00,0.00,24.9,23.8,00.0,33.7,26.8,14.0,0002.8,0020.55,0009.00,0007.54
2022-12-04 18:37:00,,0824.4,5.00,0.00,24.9,23.9,00.0,33.7,26.8,13.8,0002.1,0020.33,0009.04,0007.58
2022-12-04 18:38:00,,0824.4,5.00,0.00,24.9,23.9,00.0,33.7,26.8,13.7,0001.1,0021.05,0009.12,0007.59
2022-12-04 18:39:00,,0824.4,5.00,0.00,24.9,23.9,00.0,33.7,26.8,13.8,0001.0,0021.32,0009.14,0007.57
2022-12-04 18:40:00,,0824.3,5.00,0.00,25.0,23.9,00.0,33.7,26.8,13.7,0001.4,0021.60,0009.19,0007.55
2022-12-04 18:41:00,,0824.2,5.00,0.00,25.0,23.9,00.0,33.7,26.8,13.6,0002.1,0021.50,0009.17,0007.53
2022-12-04 18:42:00,,0824.1,5.00,0.00,25.0,24.0,00.0,33.8,26.9,13.5,0000.6,0021.60,0009.11,0007.47
2022-12-04 18:43:00,,0824.1,5.00,0.00,25.0,24.0,00.0,33.8,26.9,13.6,0000.3,0021.30,0008.92,0007.38
2022-12-04 18:44:00,,0824.1,5.00,0.00,25.0,24.0,00.0,33.8,26.9,13.6,0000.0,0020.97,0008.74,0007.30
2022-12-04 18:45:00,,0824.1,5.00,0.00,25.0,24.0,00.0,33.8,26.9,13.5,0000.5,0019.76,0008.62,0007.21
2022-12-04 18:46:00,,0824.1,5.00,0.00,25.0,24.0,00.0,33.8,26.9,13.5,0001.3,0019.49,0008.48,0007.13
2022-12-04 18:47:00,,0824.1,5.00,0.00,25.0,24.0,00.0,33.8,26.9,13.5,0001.4,0019.36,0008.44,0007.08
2022-12-04 18:48:00,,0824.1,5.00,0.00,25.1,24.0,00.0,33.8,26.9,13.6,0001.8,0019.27,0008.42,0007.03
2022-12-04 18:49:00,,0824.1,5.00,0.00,25.1,24.1,00.0,33.9,27.0,13.6,0002.9,0019.15,0008.34,0006.95
2022-12-04 18:50:00,,0824.1,5.01,0.00,25.1,24.1,00.0,33.9,27.0,13.5,0003.7,0018.05,0008.26,0006.87
2022-12-04 18:51:00,,0824.1,5.01,0.00,25.1,24.1,00.0,33.9,27.0,13.3,0003.4,0017.02,0008.21,0006.81
2022-12-04 18:52:00,,0824.1,5.00,0.00,25.1,24.2,00.0,33.9,27.0,13.4,0003.2,0016.69,0008.10,0006.74
2022-12-04 18:53:00,,0824.1,4.99,0.00,25.2,24.2,00.0,33.9,27.1,13.3,0003.3,0016.36,0007.99,0006.72
2022-12-04 18:54:00,,0824.0,4.99,0.00,25.2,24.2,00.0,33.9,27.1,13.2,0002.9,0016.22,0007.96,0006.69
2022-12-04 18:55:00,,0824.0,5.00,0.00,25.2,24.2,00.0,34.0,27.1,13.1,0002.8,0016.28,0007.92,0006.66
2022-12-04 18:56:00,,0824.0,5.00,0.00,25.2,24.2,00.0,34.0,27.1,13.1,0002.3,0015.36,0007.85,0006.63
2022-12-04 18:57:00,,0823.9,5.01,0.00,25.2,24.2,00.0,34.0,27.1,13.1,0002.2,0014.76,0007.83,0006.60
2022-12-04 18:58:00,,0823.8,5.01,0.00,25.2,24.2,00.0,34.0,27.1,13.2,0002.8,0014.00,0007.78,0006.58
2022-12-04 18:59:00,,0823.7,5.00,0.00,25.3,24.2,00.0,34.0,27.1,13.4,0004.0,0014.74,0007.67,0006.55
